Oak Ridge, TN

4:57 PM EST on November 21, 2019 (GMT -0500)
Oak Ridge

Weather History for KOQT - September, 2019

Change the Weather History Date:

Saturday, September 14, 2019

  Actual Average (WUND) Record (WUND)
Temperature  
Mean Temperature 82 °F -  
Max Temperature 91 °F - - (-1)
Min Temperature 75 °F - - (-1)
Cooling Degree Days 17    
Growing Degree Days 32 (Base 50)    
Moisture  
Dew Point 68 °F    
Average Humidity 65    
Maximum Humidity 79    
Minimum Humidity 50    
Precipitation  
Precipitation 0.00 in - - ()
Sea Level Pressure  
Sea Level Pressure 30.17 in    
Wind  
Wind Speed 2 mph ()    
Max Wind Speed 9 mph    
Max Gust Speed -    
Visibility 10.0 miles    
Events      
Averages and records for this station are not official NWS values.
T = Trace of Precipitation, MM = Missing Value Source: Averaged Metar Reports

Daily Weather History Graph

Daily Weather History Graph

Search for Another Location

Airport or City:

Astronomy

Sep. 14, 2019 Rise Set
Actual Time 7:18 AM EDT 7:45 PM EDT
Civil Twilight 6:52 AM EDT 8:11 PM EDT
Nautical Twilight 6:22 AM EDT 8:41 PM EDT
Astronomical Twilight 5:51 AM EDT 9:12 PM EDT
Moon 8:26 PM EDT (9/14) 7:32 AM EDT (9/14)
Length of Visible Light 13h 18m
Length of Day
12h 27m
Full, 100% of the Moon is Illuminated
Sep 14
Full
Sep 21
Last Quarter
Sep 28
New
Oct 5
First Quarter
Oct 13
Full

Hourly Weather History & Observations

Time (EDT) Temp. Heat Index Dew Point Humidity Pressure Visibility Wind Dir Wind Speed Gust Speed Precip Events Conditions
12:53 AM 79.0 °F - 68.0 °F 69% 30.14 in 10.0 mi Calm Calm - N/A   Scattered Clouds
1:53 AM 78.1 °F - 68.0 °F 71% 30.16 in 10.0 mi SW 4.6 mph - N/A   Partly Cloudy
2:53 AM 79.0 °F - 68.0 °F 69% 30.15 in 10.0 mi Calm Calm - N/A   Mostly Cloudy
3:53 AM 77.0 °F - 68.0 °F 74% 30.15 in 10.0 mi Calm Calm - N/A   Clear
4:53 AM 75.9 °F - 68.0 °F 76% 30.16 in 10.0 mi Calm Calm - N/A   Clear
5:53 AM 75.9 °F - 68.0 °F 76% 30.17 in 10.0 mi SW 3.5 mph - N/A   Clear
6:53 AM 75.0 °F - 68.0 °F 79% 30.19 in 10.0 mi SW 3.5 mph - N/A   Mostly Cloudy
7:53 AM 75.9 °F - 68.0 °F 76% 30.21 in 10.0 mi Variable 3.5 mph - N/A   Partly Cloudy
8:53 AM 78.1 °F - 68.0 °F 71% 30.22 in 10.0 mi West 4.6 mph - N/A   Clear
9:53 AM 78.1 °F - 68.0 °F 71% 30.24 in 10.0 mi Calm Calm - N/A   Clear
10:53 AM 79.0 °F - 68.0 °F 69% 30.23 in 10.0 mi Calm Calm - N/A   Partly Cloudy
11:53 AM 81.0 °F 83.3 °F 66.9 °F 62% 30.24 in 10.0 mi Variable 3.5 mph - N/A   Partly Cloudy
12:53 PM 82.9 °F 85.4 °F 66.9 °F 58% 30.22 in 10.0 mi South 6.9 mph - N/A   Clear
1:53 PM 84.9 °F 87.6 °F 66.9 °F 55% 30.20 in 10.0 mi SSE 9.2 mph - N/A   Clear
2:53 PM 88.0 °F 91.4 °F 68.0 °F 51% 30.17 in 10.0 mi Calm Calm - N/A   Clear
3:53 PM 88.0 °F 91.4 °F 68.0 °F 51% 30.14 in 10.0 mi SSE 3.5 mph - N/A   Partly Cloudy
4:53 PM 89.1 °F 92.9 °F 68.0 °F 50% 30.13 in 10.0 mi SE 5.8 mph - N/A   Mostly Cloudy
5:53 PM 88.0 °F 91.4 °F 68.0 °F 51% 30.13 in 10.0 mi Calm Calm - N/A   Partly Cloudy
6:53 PM 87.1 °F 90.6 °F 68.0 °F 53% 30.13 in 10.0 mi Calm Calm - 0.00 in   Clear
7:53 PM 82.9 °F 86.5 °F 69.1 °F 63% 30.14 in 10.0 mi Calm Calm - N/A   Clear
8:53 PM 82.0 °F 85.5 °F 69.1 °F 65% 30.15 in 10.0 mi Calm Calm - N/A   Partly Cloudy
9:53 PM 81.0 °F 84.1 °F 69.1 °F 67% 30.15 in - Calm Calm - N/A   Scattered Clouds
10:53 PM 77.0 °F - 70.0 °F 79% 30.17 in - Calm Calm - N/A   Clear